Starlink 5337

operational
NORAD ID: 55284 Int'l Des: 2023-010 Owner: SPXS Country: US Constellation: starlink
LEOCIRCULAR

About Starlink 5337

Description loading...

Live Position

Loading 3D Globe...

Upcoming Passes

Altitude History

Altitude vs Time

uPlot chart will show altitude changes over time

Two-Line Element Set

1 55284U 23010R 25303.26415934 -.00000401 00000-0 -25825-4 0 9990
2 55284 70.0000 13.1353 0003242 269.2917 90.7871 14.98324271153233
Epoch: Oct 30, 2025 • Age: 24 hours

Current Status

Altitude 574.4 km
Velocity 7.57 km/s
Sub-Earth Point 2.88°N, 123.97°W
Launch Date Jan 19, 2023
Age 2.7 years
Type internet

Technical Details

Classification Payload
Mass 305.00 kg
Dry Mass 290.00 kg
Total Mass 305.00 kg
Length 0.20 m
Diameter 2.80 m
Span 9.00 m
Shape Box + pan
Manufacturer SPXS
Bus Type Starlink
Phase Status In Orbit
Owner/State SPXS/US

Large Constellations

Loading constellations...